THOR ABLESTAR DEB, 329

Orbit data source: Space-Track

THOR ABLESTAR DEB, 329 is space debris in LEO originally from a launch on Thu, 29 Jun 1961 UTC launched from the Air Force Eastern Test Range (AFETR). Debris objects in space refer to the collection of defunct objects orbiting the Earth. Examples of debris include non-operational satellites, rocket bodies, and fragments generated from explosions, collisions, or faulty payload assembly.

Loading next visibility...
Identifier
329, 1961-015DF
Orbit
LEO
Country
Flag of USUS
Related business
Manufacturer
Unknown
Mission
Spacecraft
Bus & Motor
Unknown
Mass
Unknown
Launch date (UTC)
1961-06-29 (64 years ago)
Launch vehicle
Unknown
Launch site
Air Force Eastern Test Range (AFETR)
Object type
Payload
Rocket body
Debris
Shape & HBR
Unknown
Radar Cross Section
Small (<0.1 m²)

Expand to show TLE details & history
Last TLE update: 19 hours ago

TLE from 19 hours ago
0 THOR ABLESTAR DEB
1 00329U 61015DF  25259.75399368  .00000144  00000-0  25048-3 0  9991
2 00329  66.7799 295.3125 0115797 180.8988 293.8501 13.66023911192663
Epoch: 2025-09-16T18:05Z
TLE epoch observation values (Epoch: 2025-09-16T18:05:45.053Z)
Latitude
57.53132°
Longitude
165.81162°
Altitude
988.929 km
Speed
7.38 km/s
True Right ascension
04h 52m 45s
True Declination
57° 22' 49"
Sunlit
Object was in daylight at epoch
Visualization orbit readout
Latitude
Unknown
Longitude
Unknown
Altitude
Unknown
Speed
Unknown
Apparent Right ascension
Unknown
Apparent Declination
Unknown
Sunlit
N/A
Visualization observer readout
Local Sidereal Time
05:34:17
Azimuth
Unknown
Elevation
Unknown
Doppler factor
Unknown
Orbital elements
Apogee altitude
1,097.874 km
Perigee altitude
926.716 km
Semi-major axis
7,390.432 km
Eccentricity
0.01158
Inclination
66.7799°
RAAN
295.3125°
Arg. of periapsis
180.8988°
True anomaly
292.62943°
Mean anomaly
293.8501°
Eccentric anomaly
293.24047°
Mean motion
3.41616 °/min
Orbital period
105.38 mins
BSTAR
0.00025048
Loading maneuver chart data...
Computing Atmospheric mass density...

Documentation

Showing up to 5 results
|